Retour au catalogue

THOR ABLESTAR DEB

ActifLEO
NORAD 48820·DEBRIS·🇺🇸 United States

Lancé Jun 29, 1961 depuis Cape Canaveral Space Force Station

Loading…

Prochains Passages (prochaines 24 heures)

TLE

FraisSource: Space-Track

Époque: Sep 14, 2026, 12:41 UTC

1 48820U 61015MY  26257.52873550  .00000326  00000-0  43905-3 0  9997
2 48820  65.8477  83.6187 0126491 119.1739 242.2046 13.69549313640798

Suivez THOR ABLESTAR DEB en temps réel avec AllMySat

Download on the App Store